Location: Unspecified
(0.0000°N, 0.0000°E)
Time: 08:12:28
(UTC+00:00)

HTV-X1 - Pass Details

Date: 10 April 2026
Orbit: 463 x 473 km, 51.6° (Epoch: 9 April)

Event Time Altitude Azimuth Distance (km) Brightness Sun altitude
Rises 18:21:57 0° 286° (WNW) 2,496 ? -5.1°
Reaches altitude 10° 18:26:17 10° 237° (WSW) 1,620 ? -6.2°
Maximum altitude 18:26:30 10° 234° (SW) 1,617 ? -6.2°
Drops below altitude 10° 18:26:44 10° 230° (SW) 1,620 ? -6.3°
Sets 18:31:05 0° 181° (S) 2,496 ? -7.4°
